STARLINK-1015

Last updated on Thu Dec 12 2019 00:02:03 GMT+0000 (Coordinated Universal Time)

1 44721U 19074J 19345.25001157 .00008501 00000-0 64846-4 0 9998 2 44721 53.0093 23.1605 0002930 351.9056 335.8456 15.73227969 4683
UTC large
Height (km)
Speed (km/s)
/
Latitude / Longitude
Inclination (degrees)
Orbital Period (minutes)
Azimuth
Elevation
Range (km)
Doppler Factor

Next 0 passes for location: London (51.5072 / 0.1276)

Sorry there are no passes over London.